Regional Weather Roundup
Issued by NWS Kansas City/Pleasant Hill, MO

Home | Current Version | Previous Version | Graphics & Text | Print | Product List | Glossary Off
Versions: 1 2 3 4 5 6 7 8 9 10 11 12 13 14 15 16 17 18 19 20 21 22 23 24 25 26 27

000
ASUS43 KEAX 242010
RWREAX

WEATHER ROUNDUP FOR EASTERN KANSAS AND NORTHWEST MISSOURI
NATIONAL WEATHER SERVICE KANSAS CITY/PLEASANT HILL MO
300 PM CDT TUE APR 24 2018

KSZ040-057-103>105-MOZ028-029-037-043-242100-
...KANSAS CITY METROPOLITAN AREA...

CITY           SKY/WX    TMP DP  RH WIND       PRES   REMARKS
K.C. INTL      PTSUNNY   76  33  21 NW12      30.07F
K.C. DOWNTOWN  MOSUNNY   77  35  21 N15       30.05F
LEES SUMMIT    SUNNY     74  33  22 N16       30.07F
OLATHE - IXD   PTSUNNY   76  34  21 NW15      30.09S
OLATHE - OJC   PTSUNNY   75  35  23 N15       30.07F
LAWRENCE       MOSUNNY   79  32  18 N12G25    30.07F

$$

MOZ001>008-011>017-020>025-030>033-038>040-044>046-053-054-242100-
...NORTHERN AND CENTRAL MISSOURI...

CITY           SKY/WX    TMP DP  RH WIND       PRES   REMARKS
ST. JOSEPH     SUNNY     77  36  22 N7G22     30.08F
MOSBY          CLEAR     75  30  19 NE8       30.06F
WARRENSBURG    SUNNY     75  34  22 NW9       30.05F
WHITEMAN AFB   MOSUNNY   75  34  23 N12       30.01F
CLINTON        SUNNY     73  39  29 N9        30.06F
SEDALIA        MOSUNNY   75  44  33 N9        30.05F
WARSAW         NOT AVBL
CHILLICOTHE      N/A     78  34  20 N10G22    30.05F
KIRKSVILLE     SUNNY     74  35  24 NW9G17    30.04F

$$

MOZ041-047>049-056>058-063>065-088>090-097-242100-
...EASTERN AND SOUTHERN MISSOURI...

CITY           SKY/WX    TMP DP  RH WIND       PRES   REMARKS
ST. LOUIS INTL MOSUNNY   67  53  61 N9        30.00F
SPIRIT OF STL  MOSUNNY   70  52  52 N9        30.00F
COLUMBIA       CLOUDY    73  46  38 N9        30.03F
JEFFERSON CITY CLOUDY    72  47  40 NE9G17    30.02F
ROLLA          CLOUDY    68  48  48 N13       30.04F
OSAGE BEACH    PTSUNNY   69  49  48 N10       30.04F
SPRINGFIELD    SUNNY     74  43  32 NW12      30.04F
BRANSON        MOSUNNY   73  39  29 NW15G25   30.04F
JOPLIN         SUNNY     74  43  32 N7        30.06F
WEST PLAINS    PTSUNNY   69  49  48 N12G21    30.03S

$$

IAZ060-094-KSZ022-034>040-054-083-096-NEZ052-066-093-242100-
...KANSAS...SOUTHEAST NEBRASKA AND IOWA...

CITY           SKY/WX    TMP DP  RH WIND       PRES   REMARKS
TOPEKA         MOSUNNY   77  34  21 NW10      30.08F
MANHATTAN      CLOUDY    75  39  27 N5        30.09F
EMPORIA        MOSUNNY   75  34  22 NW3       30.08F
CHANUTE        SUNNY     79  34  19 N12G17    30.08F
WICHITA        CLOUDY    76  41  28 N8G21     30.11F
OMAHA          CLOUDY    75  35  23 W13G25    30.09F
LINCOLN        CLOUDY    61  45  55 NW20      30.18R
FALLS CITY     MOSUNNY   75  35  23 VRB5      30.08F
LAMONI         SUNNY     75  37  25 NE9G18    30.06F
DES MOINES     CLOUDY    73  33  23 VRB6G21   30.06F

$$





USA.gov is the U.S. government's official web portal to all federal, state and local government web resources and services.